Location: Newark
(48.0167°N, 2.6667°E)
Time: 13:54:11
(UTC+00:00)

X-37B - Visible Passes

Search period start: 29 September 2020 00:00
Search period end: 09 October 2020 00:00
Orbit: 386 x 387 km, 45.0° (Epoch: 18 September)

Date Brightness Start Highest point End Pass type
(mag) Time Alt. Az. Time Alt. Az. Time Alt. Az.
02 Oct 3.0 19:10:13 10° SSW 19:10:54 13° S 19:10:54 13° S visible
03 Oct 2.9 18:12:56 10° S 18:14:07 12° SSE 18:15:15 10° SE visible
03 Oct 3.5 19:47:13 10° SW 19:47:32 12° SW 19:47:32 12° SW visible
04 Oct 1.9 18:49:01 10° SW 18:51:42 25° SSE 18:51:46 25° SSE visible
05 Oct 2.5 17:51:05 10° SSW 17:53:19 18° SSE 17:55:33 10° ESE visible
05 Oct 2.3 19:26:27 10° WSW 19:28:11 26° SW 19:28:11 26° SW visible
06 Oct 1.5 18:28:05 10° SW 18:31:01 34° SSE 18:32:15 24° ESE visible
06 Oct 3.9 20:04:17 10° WSW 20:04:31 12° WSW 20:04:31 12° WSW visible
07 Oct 1.2 19:05:46 10° WSW 19:08:32 46° SSW 19:08:32 46° SSW visible
08 Oct 1.3 18:07:20 10° WSW 18:10:21 42° S 18:12:31 17° ESE visible
08 Oct 3.2 19:43:41 10° W 19:44:47 19° WSW 19:44:47 19° WSW visible
